Year,Month,Day,Hour,Minute,Value (Times are PST for temperature in C)
2012,09,14,00,00,13.70
2012,09,14,00,01,13.70
2012,09,14,00,02,13.70
2012,09,14,00,04,13.60
2012,09,14,00,05,13.60
2012,09,14,00,06,13.50
2012,09,14,00,08,13.40
2012,09,14,00,09,13.40
2012,09,14,00,10,13.40
2012,09,14,00,12,13.30
2012,09,14,00,13,13.30
2012,09,14,00,14,13.30
2012,09,14,00,15,13.30
2012,09,14,00,17,13.20
2012,09,14,00,19,13.20
2012,09,14,00,20,13.20
2012,09,14,00,21,13.10
2012,09,14,00,22,13.10
2012,09,14,00,23,13.00
2012,09,14,00,24,13.00
2012,09,14,00,25,12.90
2012,09,14,00,27,12.90
2012,09,14,00,28,12.90
2012,09,14,00,29,12.80
2012,09,14,00,31,12.80
2012,09,14,00,32,12.80
2012,09,14,00,33,12.70
2012,09,14,00,35,12.70
2012,09,14,00,36,12.70
2012,09,14,00,37,12.70
2012,09,14,00,39,12.70
2012,09,14,00,40,12.60
2012,09,14,00,41,12.60
2012,09,14,00,42,12.60
2012,09,14,00,44,12.60
2012,09,14,00,45,12.60
2012,09,14,00,46,12.60
2012,09,14,00,47,12.50
2012,09,14,00,48,12.50
2012,09,14,00,49,12.50
2012,09,14,00,50,12.40
2012,09,14,00,51,12.40
2012,09,14,00,52,12.40
2012,09,14,00,53,12.40
2012,09,14,00,55,12.30
2012,09,14,00,56,12.30
2012,09,14,00,58,12.30
2012,09,14,00,59,12.30
2012,09,14,01,00,12.30
2012,09,14,01,02,12.30
2012,09,14,01,03,12.20
2012,09,14,01,04,12.20
2012,09,14,01,06,12.20
2012,09,14,01,07,12.20
2012,09,14,01,08,12.20
2012,09,14,01,10,12.10
2012,09,14,01,11,12.10
2012,09,14,01,12,12.10
2012,09,14,01,13,12.10
2012,09,14,01,15,12.10
2012,09,14,01,16,12.10
2012,09,14,01,17,12.10
2012,09,14,01,19,12.00
2012,09,14,01,20,12.00
2012,09,14,01,21,12.00
2012,09,14,01,22,12.00
2012,09,14,01,23,12.00
2012,09,14,01,25,12.00
2012,09,14,01,26,12.00
2012,09,14,01,27,12.00
2012,09,14,01,29,12.00
2012,09,14,01,30,12.00
2012,09,14,01,31,12.00
2012,09,14,01,33,12.00
2012,09,14,01,34,12.00
2012,09,14,01,35,12.00
2012,09,14,01,37,11.90
2012,09,14,01,38,11.90
2012,09,14,01,39,11.90
2012,09,14,01,40,11.90
2012,09,14,01,42,11.90
2012,09,14,01,43,11.90
2012,09,14,01,44,11.80
2012,09,14,01,46,11.80
2012,09,14,01,47,11.80
2012,09,14,01,48,11.80
2012,09,14,01,49,11.80
2012,09,14,01,50,11.70
2012,09,14,01,52,11.70
2012,09,14,01,53,11.70
2012,09,14,01,54,11.70
2012,09,14,01,56,11.60
2012,09,14,01,57,11.60
2012,09,14,01,59,11.50
2012,09,14,02,00,11.50
2012,09,14,02,01,11.40
2012,09,14,02,02,11.40
2012,09,14,02,04,11.30
2012,09,14,02,05,11.30
2012,09,14,02,06,11.30
2012,09,14,02,08,11.20
2012,09,14,02,09,11.20
2012,09,14,02,10,11.20
2012,09,14,02,11,11.20
2012,09,14,02,13,11.10
2012,09,14,02,14,11.10
2012,09,14,02,15,11.10
2012,09,14,02,17,11.10
2012,09,14,02,18,11.10
2012,09,14,02,19,11.00
2012,09,14,02,20,11.00
2012,09,14,02,21,11.00
2012,09,14,02,22,11.10
2012,09,14,02,23,11.10
2012,09,14,02,24,11.10
2012,09,14,02,25,11.10
2012,09,14,02,27,11.10
2012,09,14,02,28,11.10
2012,09,14,02,29,11.00
2012,09,14,02,31,11.00
2012,09,14,02,32,11.00
2012,09,14,02,33,11.00
2012,09,14,02,35,10.90
2012,09,14,02,36,10.90
2012,09,14,02,37,10.90
2012,09,14,02,38,10.90
2012,09,14,02,40,10.90
2012,09,14,02,41,10.80
2012,09,14,02,42,10.80
2012,09,14,02,44,10.80
2012,09,14,02,46,10.80
2012,09,14,02,48,10.80
2012,09,14,02,49,10.80
2012,09,14,02,50,10.80
2012,09,14,02,51,10.70
2012,09,14,02,52,10.70
2012,09,14,02,54,10.70
2012,09,14,02,55,10.70
2012,09,14,02,56,10.70
2012,09,14,02,58,10.60
2012,09,14,02,59,10.60
2012,09,14,03,00,10.60
2012,09,14,03,02,10.60
2012,09,14,03,03,10.60
2012,09,14,03,04,10.60
2012,09,14,03,06,10.50
2012,09,14,03,07,10.50
2012,09,14,03,08,10.40
2012,09,14,03,09,10.40
2012,09,14,03,11,10.40
2012,09,14,03,12,10.40
2012,09,14,03,13,10.40
2012,09,14,03,15,10.30
2012,09,14,03,16,10.30
2012,09,14,03,17,10.30
2012,09,14,03,18,10.30
2012,09,14,03,19,10.30
2012,09,14,03,20,10.30
2012,09,14,03,21,10.20
2012,09,14,03,22,10.20
2012,09,14,03,23,10.20
2012,09,14,03,25,10.20
2012,09,14,03,26,10.20
2012,09,14,03,27,10.20
2012,09,14,03,29,10.20
2012,09,14,03,30,10.20
2012,09,14,03,31,10.20
2012,09,14,03,33,10.20
2012,09,14,03,34,10.20
2012,09,14,03,35,10.10
2012,09,14,03,36,10.10
2012,09,14,03,38,10.10
2012,09,14,03,39,10.10
2012,09,14,03,40,10.10
2012,09,14,03,42,10.00
2012,09,14,03,43,10.00
2012,09,14,03,44,9.90
2012,09,14,03,45,9.90
2012,09,14,03,46,9.90
2012,09,14,03,47,9.90
2012,09,14,03,48,9.90
2012,09,14,03,49,9.80
2012,09,14,03,50,9.80
2012,09,14,03,52,9.70
2012,09,14,03,53,9.70
2012,09,14,03,54,9.70
2012,09,14,03,56,9.60
2012,09,14,03,57,9.60
2012,09,14,03,58,9.60
2012,09,14,04,00,9.60
2012,09,14,04,01,9.50
2012,09,14,04,02,9.50
2012,09,14,04,04,9.40
2012,09,14,04,05,9.40
2012,09,14,04,06,9.40
2012,09,14,04,07,9.40
2012,09,14,04,09,9.40
2012,09,14,04,10,9.40
2012,09,14,04,11,9.40
2012,09,14,04,13,9.40
2012,09,14,04,14,9.40
2012,09,14,04,15,9.40
2012,09,14,04,16,9.40
2012,09,14,04,17,9.40
2012,09,14,04,18,9.40
2012,09,14,04,19,9.40
2012,09,14,04,20,9.40
2012,09,14,04,21,9.40
2012,09,14,04,23,9.40
2012,09,14,04,24,9.40
2012,09,14,04,25,9.40
2012,09,14,04,27,9.40
2012,09,14,04,28,9.40
2012,09,14,04,29,9.40
2012,09,14,04,31,9.40
2012,09,14,04,32,9.40
2012,09,14,04,33,9.40
2012,09,14,04,35,9.40
2012,09,14,04,36,9.40
2012,09,14,04,37,9.40
2012,09,14,04,38,9.40
2012,09,14,04,39,9.40
2012,09,14,04,40,9.40
2012,09,14,04,42,9.40
2012,09,14,04,43,9.40
2012,09,14,04,44,9.30
2012,09,14,04,46,9.30
2012,09,14,04,47,9.30
2012,09,14,04,48,9.30
2012,09,14,04,49,9.20
2012,09,14,04,50,9.20
2012,09,14,04,51,9.20
2012,09,14,04,52,9.20
2012,09,14,04,53,9.20
2012,09,14,04,54,9.10
2012,09,14,04,55,9.10
2012,09,14,04,56,9.10
2012,09,14,04,57,9.10
2012,09,14,04,58,9.10
2012,09,14,05,00,9.10
2012,09,14,05,01,9.10
2012,09,14,05,02,9.10
2012,09,14,05,03,9.10
2012,09,14,05,04,9.10
2012,09,14,05,05,9.10
2012,09,14,05,06,9.10
2012,09,14,05,07,9.10
2012,09,14,05,08,9.00
2012,09,14,05,09,9.00
2012,09,14,05,10,9.00
2012,09,14,05,11,8.90
2012,09,14,05,13,8.90
2012,09,14,05,14,8.90
2012,09,14,05,15,8.90
2012,09,14,05,16,8.90
2012,09,14,05,17,8.80
2012,09,14,05,18,8.80
2012,09,14,05,19,8.80
2012,09,14,05,20,8.80
2012,09,14,05,21,8.80
2012,09,14,05,22,8.70
2012,09,14,05,24,8.70
2012,09,14,05,26,8.70
2012,09,14,05,28,8.60
2012,09,14,05,29,8.60
2012,09,14,05,30,8.60
2012,09,14,05,32,8.60
2012,09,14,05,33,8.60
2012,09,14,05,34,8.60
2012,09,14,05,36,8.50
2012,09,14,05,37,8.50
2012,09,14,05,38,8.50
2012,09,14,05,40,8.50
2012,09,14,05,41,8.50
2012,09,14,05,42,8.60
2012,09,14,05,43,8.60
2012,09,14,05,44,8.60
2012,09,14,05,45,8.60
2012,09,14,05,46,8.60
2012,09,14,05,47,8.70
2012,09,14,05,48,8.70
2012,09,14,05,49,8.70
2012,09,14,05,50,8.70
2012,09,14,05,51,8.70
2012,09,14,05,52,8.80
2012,09,14,05,53,8.80
2012,09,14,05,55,8.80
2012,09,14,05,56,8.80
2012,09,14,05,57,8.80
2012,09,14,05,59,8.70
2012,09,14,06,01,8.70
2012,09,14,06,03,8.70
2012,09,14,06,04,8.70
2012,09,14,06,05,8.70
2012,09,14,06,07,8.60
2012,09,14,06,08,8.60
2012,09,14,06,09,8.60
2012,09,14,06,10,8.60
2012,09,14,06,12,8.50
2012,09,14,06,13,8.50
2012,09,14,06,14,8.50
2012,09,14,06,16,8.40
2012,09,14,06,17,8.40
2012,09,14,06,18,8.40
2012,09,14,06,19,8.40
2012,09,14,06,20,8.40
2012,09,14,06,21,8.40
2012,09,14,06,22,8.40
2012,09,14,06,24,8.40
2012,09,14,06,25,8.40
2012,09,14,06,27,8.40
2012,09,14,06,28,8.40
2012,09,14,06,29,8.40
2012,09,14,06,30,8.40
2012,09,14,06,31,8.40
2012,09,14,06,32,8.30
2012,09,14,06,33,8.30
2012,09,14,06,34,8.30
2012,09,14,06,35,8.30
2012,09,14,06,37,8.30
2012,09,14,06,39,8.20
2012,09,14,06,40,8.20
2012,09,14,06,41,8.20
2012,09,14,06,43,8.20
2012,09,14,06,44,8.20
2012,09,14,06,45,8.10
2012,09,14,06,46,8.10
2012,09,14,06,47,8.10
2012,09,14,06,48,8.10
2012,09,14,06,49,8.10
2012,09,14,06,51,8.00
2012,09,14,06,52,8.00
2012,09,14,06,53,8.00
2012,09,14,06,54,8.00
2012,09,14,06,55,7.90
2012,09,14,06,57,7.90
2012,09,14,06,58,7.90
2012,09,14,06,59,7.90
2012,09,14,07,00,7.90
2012,09,14,07,02,7.90
2012,09,14,07,03,7.90
2012,09,14,07,04,7.90
2012,09,14,07,05,7.90
2012,09,14,07,06,7.90
2012,09,14,07,07,8.00
2012,09,14,07,08,7.90
2012,09,14,07,09,7.90
2012,09,14,07,10,7.90
2012,09,14,07,11,8.00
2012,09,14,07,13,8.00
2012,09,14,07,14,8.00
2012,09,14,07,15,8.00
2012,09,14,07,17,8.00
2012,09,14,07,18,8.00
2012,09,14,07,19,8.00
2012,09,14,07,20,8.00
2012,09,14,07,21,8.00
2012,09,14,07,23,8.10
2012,09,14,07,24,8.10
2012,09,14,07,25,8.10
2012,09,14,07,26,8.10
2012,09,14,07,27,8.10
2012,09,14,07,28,8.10
2012,09,14,07,29,8.10
2012,09,14,07,30,8.10
2012,09,14,07,32,8.10
2012,09,14,07,33,8.10
2012,09,14,07,34,8.10
2012,09,14,07,35,8.10
2012,09,14,07,36,8.10
2012,09,14,07,37,8.20
2012,09,14,07,38,8.20
2012,09,14,07,39,8.20
2012,09,14,07,41,8.20
2012,09,14,07,42,8.20
2012,09,14,07,43,8.30
2012,09,14,07,44,8.30
2012,09,14,07,45,8.30
2012,09,14,07,46,8.40
2012,09,14,07,48,8.50
2012,09,14,07,49,8.50
2012,09,14,07,50,8.60
2012,09,14,07,51,8.60
2012,09,14,07,52,8.60
2012,09,14,07,53,8.70
2012,09,14,07,54,8.70
2012,09,14,07,55,8.70
2012,09,14,07,56,8.80
2012,09,14,07,57,8.80
2012,09,14,07,58,8.80
2012,09,14,07,59,8.80
2012,09,14,08,00,8.80
2012,09,14,08,01,8.80
2012,09,14,08,02,8.90
2012,09,14,08,03,8.90
2012,09,14,08,05,8.90
2012,09,14,08,06,8.90
2012,09,14,08,08,9.00
2012,09,14,08,10,9.10
2012,09,14,08,12,9.10
2012,09,14,08,13,9.20
2012,09,14,08,14,9.20
2012,09,14,08,15,9.20
2012,09,14,08,16,9.30
2012,09,14,08,17,9.30
2012,09,14,08,18,9.40
2012,09,14,08,20,9.50
2012,09,14,08,21,9.60
2012,09,14,08,23,9.70
2012,09,14,08,26,9.90
2012,09,14,08,28,10.10
2012,09,14,08,29,10.20
2012,09,14,08,31,10.40
2012,09,14,08,32,10.40
2012,09,14,08,33,10.60
2012,09,14,08,35,10.70
2012,09,14,08,36,10.80
2012,09,14,08,38,10.90
2012,09,14,08,39,10.90
2012,09,14,08,40,11.00
2012,09,14,08,41,11.10
2012,09,14,08,43,11.30
2012,09,14,08,44,11.30
2012,09,14,08,45,11.40
2012,09,14,08,47,11.60
2012,09,14,08,48,11.70
2012,09,14,08,49,11.70
2012,09,14,08,51,11.80
2012,09,14,08,52,11.90
2012,09,14,08,54,12.00
2012,09,14,08,55,12.10
2012,09,14,08,56,12.20
2012,09,14,08,57,12.30
2012,09,14,08,58,12.40
2012,09,14,08,59,12.50
2012,09,14,09,00,12.60
2012,09,14,09,01,12.70
2012,09,14,09,02,12.70
2012,09,14,09,03,12.70
2012,09,14,09,04,12.80
2012,09,14,09,05,12.80
2012,09,14,09,06,12.80
2012,09,14,09,07,12.90
2012,09,14,09,08,12.90
2012,09,14,09,09,12.90
2012,09,14,09,10,13.10
2012,09,14,09,11,13.10
2012,09,14,09,12,13.20
2012,09,14,09,13,13.20
2012,09,14,09,14,13.30
2012,09,14,09,15,13.30
2012,09,14,09,17,13.30
2012,09,14,09,18,13.30
2012,09,14,09,19,13.40
2012,09,14,09,21,13.50
2012,09,14,09,22,13.60
2012,09,14,09,23,13.60
2012,09,14,09,24,13.60
2012,09,14,09,25,13.60
2012,09,14,09,26,13.60
2012,09,14,09,27,13.70
2012,09,14,09,28,13.70
2012,09,14,09,29,13.70
2012,09,14,09,31,13.70
2012,09,14,09,32,13.80
2012,09,14,09,33,13.80
2012,09,14,09,34,13.80
2012,09,14,09,35,13.80
2012,09,14,09,37,13.90
2012,09,14,09,38,14.00
2012,09,14,09,39,14.10
2012,09,14,09,40,14.20
2012,09,14,09,41,14.30
2012,09,14,09,42,14.40
2012,09,14,09,43,14.40
2012,09,14,09,44,14.50
2012,09,14,09,45,14.60
2012,09,14,09,46,14.60
2012,09,14,09,48,14.70
2012,09,14,09,49,14.70
2012,09,14,09,50,14.70
2012,09,14,09,51,14.70
2012,09,14,09,52,14.80
2012,09,14,09,53,14.80
2012,09,14,09,54,15.00
2012,09,14,09,55,15.00
2012,09,14,09,56,15.00
2012,09,14,09,57,15.10
2012,09,14,09,58,15.20
2012,09,14,09,59,15.20
2012,09,14,10,01,15.30
2012,09,14,10,02,15.30
2012,09,14,10,03,15.30
2012,09,14,10,04,15.30
2012,09,14,10,06,15.40
2012,09,14,10,07,15.40
2012,09,14,10,08,15.40
2012,09,14,10,10,15.40
2012,09,14,10,11,15.40
2012,09,14,10,12,15.40
2012,09,14,10,13,15.50
2012,09,14,10,15,15.50
2012,09,14,10,16,15.50
2012,09,14,10,17,15.60
2012,09,14,10,18,15.60
2012,09,14,10,19,15.70
2012,09,14,10,20,15.70
2012,09,14,10,21,15.80
2012,09,14,10,23,15.90
2012,09,14,10,24,15.90
2012,09,14,10,25,16.00
2012,09,14,10,26,16.10
2012,09,14,10,27,16.20
2012,09,14,10,28,16.30
2012,09,14,10,29,16.40
2012,09,14,10,31,16.60
2012,09,14,10,32,16.70
2012,09,14,10,33,16.70
2012,09,14,10,34,16.80
2012,09,14,10,35,16.80
2012,09,14,10,36,16.90
2012,09,14,10,37,16.90
2012,09,14,10,38,17.00
2012,09,14,10,39,17.10
2012,09,14,10,40,17.10
2012,09,14,10,41,17.20
2012,09,14,10,42,17.20
2012,09,14,10,43,17.20
2012,09,14,10,44,17.30
2012,09,14,10,45,17.30
2012,09,14,10,46,17.30
2012,09,14,10,47,17.40
2012,09,14,10,48,17.40
2012,09,14,10,49,17.40
2012,09,14,10,50,17.40
2012,09,14,10,51,17.50
2012,09,14,10,53,17.50
2012,09,14,10,54,17.50
2012,09,14,10,55,17.60
2012,09,14,10,56,17.60
2012,09,14,10,58,17.70
2012,09,14,10,59,17.70
2012,09,14,11,00,17.70
2012,09,14,11,01,17.80
2012,09,14,11,02,17.80
2012,09,14,11,03,17.90
2012,09,14,11,04,17.90
2012,09,14,11,05,18.00
2012,09,14,11,07,18.10
2012,09,14,11,08,18.20
2012,09,14,11,10,18.20
2012,09,14,11,12,18.30
2012,09,14,11,13,18.30
2012,09,14,11,14,18.30
2012,09,14,11,16,18.30
2012,09,14,11,18,18.40
2012,09,14,11,20,18.40
2012,09,14,11,21,18.50
2012,09,14,11,22,18.60
2012,09,14,11,23,18.70
2012,09,14,11,25,18.80
2012,09,14,11,26,18.90
2012,09,14,11,27,19.10
2012,09,14,11,28,19.20
2012,09,14,11,29,19.30
2012,09,14,11,30,19.40
2012,09,14,11,31,19.50
2012,09,14,11,32,19.60
2012,09,14,11,33,19.70
2012,09,14,11,34,19.80
2012,09,14,11,35,19.80
2012,09,14,11,36,19.90
2012,09,14,11,37,20.00
2012,09,14,11,38,20.10
2012,09,14,11,39,20.20
2012,09,14,11,40,20.20
2012,09,14,11,41,20.20
2012,09,14,11,42,20.30
2012,09,14,11,43,20.30
2012,09,14,11,44,20.30
2012,09,14,11,45,20.40
2012,09,14,11,46,20.40
2012,09,14,11,47,20.40
2012,09,14,11,49,20.60
2012,09,14,11,50,20.60
2012,09,14,11,51,20.60
2012,09,14,11,53,20.70
2012,09,14,11,54,20.70
2012,09,14,11,55,20.70
2012,09,14,11,56,20.70
2012,09,14,11,57,20.70
2012,09,14,11,58,20.70
2012,09,14,11,59,20.70
2012,09,14,12,00,20.70
2012,09,14,12,02,20.70
2012,09,14,12,03,20.70
2012,09,14,12,04,20.70
2012,09,14,12,05,20.70
2012,09,14,12,06,20.80
2012,09,14,12,08,20.80
2012,09,14,12,09,20.80
2012,09,14,12,10,20.80
2012,09,14,12,11,20.80
2012,09,14,12,12,20.90
2012,09,14,12,13,20.90
2012,09,14,12,14,21.00
2012,09,14,12,15,21.10
2012,09,14,12,16,21.10
2012,09,14,12,17,21.20
2012,09,14,12,18,21.20
2012,09,14,12,20,21.20
2012,09,14,12,21,21.20
2012,09,14,12,22,21.10
2012,09,14,12,23,21.10
2012,09,14,12,24,21.00
2012,09,14,12,25,21.00
2012,09,14,12,26,20.90
2012,09,14,12,27,20.90
2012,09,14,12,28,20.90
2012,09,14,12,29,20.90
2012,09,14,12,30,21.00
2012,09,14,12,32,21.10
2012,09,14,12,34,21.20
2012,09,14,12,35,21.30
2012,09,14,12,36,21.40
2012,09,14,12,37,21.60
2012,09,14,12,38,21.70
2012,09,14,12,40,21.80
2012,09,14,12,41,21.90
2012,09,14,12,42,22.10
2012,09,14,12,43,22.20
2012,09,14,12,45,22.30
2012,09,14,12,46,22.40
2012,09,14,12,47,22.40
2012,09,14,12,48,22.50
2012,09,14,12,49,22.60
2012,09,14,12,50,22.60
2012,09,14,12,51,22.70
2012,09,14,12,53,22.80
2012,09,14,12,54,22.80
2012,09,14,12,55,22.90
2012,09,14,12,56,23.00
2012,09,14,12,57,23.10
2012,09,14,12,59,23.10
2012,09,14,13,00,23.20
2012,09,14,13,01,23.20
2012,09,14,13,02,23.30
2012,09,14,13,03,23.20
2012,09,14,13,04,23.30
2012,09,14,13,05,23.30
2012,09,14,13,06,23.30
2012,09,14,13,08,23.40
2012,09,14,13,10,23.40
2012,09,14,13,12,23.60
2012,09,14,13,14,23.60
2012,09,14,13,15,23.70
2012,09,14,13,16,23.70
2012,09,14,13,17,23.70
2012,09,14,13,18,23.70
2012,09,14,13,19,23.80
2012,09,14,13,20,23.90
2012,09,14,13,21,23.90
2012,09,14,13,22,23.80
2012,09,14,13,23,23.80
2012,09,14,13,24,23.80
2012,09,14,13,25,23.90
2012,09,14,13,26,23.90
2012,09,14,13,27,23.80
2012,09,14,13,28,23.90
2012,09,14,13,29,23.90
2012,09,14,13,30,23.90
2012,09,14,13,31,23.90
2012,09,14,13,32,24.00
2012,09,14,13,33,24.10
2012,09,14,13,34,24.10
2012,09,14,13,35,24.10
2012,09,14,13,36,24.10
2012,09,14,13,37,24.10
2012,09,14,13,38,24.20
2012,09,14,13,39,24.30
2012,09,14,13,40,24.30
2012,09,14,13,41,24.40
2012,09,14,13,42,24.50
2012,09,14,13,43,24.60
2012,09,14,13,44,24.70
2012,09,14,13,45,24.70
2012,09,14,13,46,24.80
2012,09,14,13,47,24.80
2012,09,14,13,48,24.90
2012,09,14,13,49,24.90
2012,09,14,13,50,25.00
2012,09,14,13,51,25.10
2012,09,14,13,52,25.10
2012,09,14,13,53,25.10
2012,09,14,13,54,25.20
2012,09,14,13,55,25.20
2012,09,14,13,56,25.10
2012,09,14,13,57,25.10
2012,09,14,13,58,25.10
2012,09,14,13,59,24.90
2012,09,14,14,00,24.90
2012,09,14,14,01,25.00
2012,09,14,14,02,24.90
2012,09,14,14,03,24.90
2012,09,14,14,04,24.90
2012,09,14,14,05,24.90
2012,09,14,14,06,24.90
2012,09,14,14,07,24.90
2012,09,14,14,08,25.00
2012,09,14,14,09,25.10
2012,09,14,14,10,25.10
2012,09,14,14,11,25.10
2012,09,14,14,12,25.20
2012,09,14,14,13,25.20
2012,09,14,14,14,25.30
2012,09,14,14,15,25.40
2012,09,14,14,16,25.40
2012,09,14,14,17,25.50
2012,09,14,14,18,25.60
2012,09,14,14,19,25.70
2012,09,14,14,20,25.70
2012,09,14,14,21,25.80
2012,09,14,14,22,25.80
2012,09,14,14,23,25.90
2012,09,14,14,24,25.90
2012,09,14,14,25,25.90
2012,09,14,14,26,25.90
2012,09,14,14,27,26.00
2012,09,14,14,28,26.10
2012,09,14,14,29,26.10
2012,09,14,14,30,26.10
2012,09,14,14,31,26.10
2012,09,14,14,32,26.10
2012,09,14,14,33,26.20
2012,09,14,14,34,26.20
2012,09,14,14,35,26.30
2012,09,14,14,36,26.30
2012,09,14,14,37,26.30
2012,09,14,14,38,26.40
2012,09,14,14,39,26.40
2012,09,14,14,40,26.40
2012,09,14,14,41,26.50
2012,09,14,14,42,26.60
2012,09,14,14,43,26.60
2012,09,14,14,44,26.70
2012,09,14,14,45,26.80
2012,09,14,14,46,26.80
2012,09,14,14,47,26.80
2012,09,14,14,48,26.90
2012,09,14,14,49,26.90
2012,09,14,14,50,26.90
2012,09,14,14,51,26.90
2012,09,14,14,52,27.00
2012,09,14,14,53,27.00
2012,09,14,14,54,27.10
2012,09,14,14,55,27.10
2012,09,14,14,57,27.20
2012,09,14,14,58,27.20
2012,09,14,15,01,27.20
2012,09,14,15,02,27.10
2012,09,14,15,03,27.10
2012,09,14,15,04,27.10
2012,09,14,15,05,27.10
2012,09,14,15,06,27.10
2012,09,14,15,07,27.00
2012,09,14,15,08,26.90
2012,09,14,15,09,26.90
2012,09,14,15,10,26.90
2012,09,14,15,11,26.90
2012,09,14,15,12,26.90
2012,09,14,15,13,26.90
2012,09,14,15,14,26.90
2012,09,14,15,15,26.90
2012,09,14,15,16,26.80
2012,09,14,15,17,26.80
2012,09,14,15,18,26.90
2012,09,14,15,19,26.90
2012,09,14,15,20,26.90
2012,09,14,15,21,26.90
2012,09,14,15,22,26.90
2012,09,14,15,23,26.90
2012,09,14,15,24,26.90
2012,09,14,15,25,26.90
2012,09,14,15,26,26.90
2012,09,14,15,27,26.90
2012,09,14,15,28,26.90
2012,09,14,15,29,26.80
2012,09,14,15,30,26.80
2012,09,14,15,31,26.80
2012,09,14,15,32,26.70
2012,09,14,15,33,26.70
2012,09,14,15,34,26.70
2012,09,14,15,35,26.70
2012,09,14,15,36,26.80
2012,09,14,15,37,26.80
2012,09,14,15,38,26.80
2012,09,14,15,39,26.80
2012,09,14,15,40,26.80
2012,09,14,15,41,26.80
2012,09,14,15,42,26.80
2012,09,14,15,43,26.80
2012,09,14,15,44,26.80
2012,09,14,15,45,26.80
2012,09,14,15,46,26.80
2012,09,14,15,47,26.80
2012,09,14,15,48,26.90
2012,09,14,15,49,26.90
2012,09,14,15,50,26.90
2012,09,14,15,51,26.90
2012,09,14,15,52,27.00
2012,09,14,15,53,27.00
2012,09,14,15,54,27.10
2012,09,14,15,55,27.10
2012,09,14,15,56,27.10
2012,09,14,15,57,27.10
2012,09,14,15,58,27.10
2012,09,14,15,59,27.10
2012,09,14,16,01,27.10
2012,09,14,16,02,27.10
2012,09,14,16,03,27.10
2012,09,14,16,04,27.20
2012,09,14,16,05,27.20
2012,09,14,16,06,27.20
2012,09,14,16,07,27.20
2012,09,14,16,08,27.30
2012,09,14,16,09,27.30
2012,09,14,16,10,27.20
2012,09,14,16,11,27.20
2012,09,14,16,12,27.20
2012,09,14,16,13,27.20
2012,09,14,16,14,27.20
2012,09,14,16,15,27.20
2012,09,14,16,16,27.20
2012,09,14,16,17,27.20
2012,09,14,16,18,27.20
2012,09,14,16,19,27.30
2012,09,14,16,20,27.30
2012,09,14,16,21,27.30
2012,09,14,16,22,27.30
2012,09,14,16,23,27.30
2012,09,14,16,24,27.40
2012,09,14,16,25,27.40
2012,09,14,16,26,27.40
2012,09,14,16,27,27.40
2012,09,14,16,28,27.40
2012,09,14,16,29,27.40
2012,09,14,16,30,27.30
2012,09,14,16,31,27.30
2012,09,14,16,32,27.30
2012,09,14,16,33,27.30
2012,09,14,16,34,27.20
2012,09,14,16,35,27.20
2012,09,14,16,36,27.20
2012,09,14,16,37,27.10
2012,09,14,16,38,27.10
2012,09,14,16,39,27.10
2012,09,14,16,40,27.00
2012,09,14,16,41,27.00
2012,09,14,16,42,26.90
2012,09,14,16,43,26.90
2012,09,14,16,44,27.00
2012,09,14,16,45,27.00
2012,09,14,16,46,27.00
2012,09,14,16,47,27.10
2012,09,14,16,48,27.10
2012,09,14,16,49,27.10
2012,09,14,16,50,27.10
2012,09,14,16,51,27.10
2012,09,14,16,52,27.10
2012,09,14,16,53,27.10
2012,09,14,16,54,27.10
2012,09,14,16,55,27.10
2012,09,14,16,56,27.00
2012,09,14,16,57,26.90
2012,09,14,16,58,26.90
2012,09,14,16,59,26.90
2012,09,14,17,00,26.90
2012,09,14,17,01,26.90
2012,09,14,17,02,26.90
2012,09,14,17,03,27.00
2012,09,14,17,04,27.00
2012,09,14,17,05,27.00
2012,09,14,17,06,27.00
2012,09,14,17,07,27.00
2012,09,14,17,08,27.00
2012,09,14,17,09,27.00
2012,09,14,17,10,27.00
2012,09,14,17,11,27.00
2012,09,14,17,12,27.00
2012,09,14,17,13,27.00
2012,09,14,17,14,27.00
2012,09,14,17,15,27.10
2012,09,14,17,16,27.10
2012,09,14,17,17,27.10
2012,09,14,17,18,27.10
2012,09,14,17,19,27.10
2012,09,14,17,20,27.10
2012,09,14,17,21,27.00
2012,09,14,17,22,27.00
2012,09,14,17,23,27.00
2012,09,14,17,24,26.90
2012,09,14,17,25,26.90
2012,09,14,17,26,26.90
2012,09,14,17,27,26.90
2012,09,14,17,28,26.90
2012,09,14,17,29,26.90
2012,09,14,17,30,26.80
2012,09,14,17,31,26.80
2012,09,14,17,32,26.80
2012,09,14,17,33,26.80
2012,09,14,17,34,26.80
2012,09,14,17,35,26.80
2012,09,14,17,36,26.80
2012,09,14,17,37,26.80
2012,09,14,17,38,26.80
2012,09,14,17,39,26.80
2012,09,14,17,40,26.80
2012,09,14,17,41,26.80
2012,09,14,17,42,26.80
2012,09,14,17,43,26.80
2012,09,14,17,44,26.80
2012,09,14,17,45,26.80
2012,09,14,17,46,26.80
2012,09,14,17,47,26.80
2012,09,14,17,48,26.80
2012,09,14,17,49,26.80
2012,09,14,17,50,26.80
2012,09,14,17,51,26.80
2012,09,14,17,52,26.80
2012,09,14,17,53,26.80
2012,09,14,17,54,26.80
2012,09,14,17,55,26.80
2012,09,14,17,56,26.70
2012,09,14,17,57,26.80
2012,09,14,17,58,26.80
2012,09,14,17,59,26.80
2012,09,14,18,00,26.80
2012,09,14,18,01,26.80
2012,09,14,18,02,26.80
2012,09,14,18,03,26.80
2012,09,14,18,04,26.80
2012,09,14,18,05,26.90
2012,09,14,18,06,26.80
2012,09,14,18,07,26.80
2012,09,14,18,08,26.80
2012,09,14,18,09,26.70
2012,09,14,18,10,26.70
2012,09,14,18,11,26.60
2012,09,14,18,12,26.50
2012,09,14,18,13,26.30
2012,09,14,18,14,26.20
2012,09,14,18,15,26.10
2012,09,14,18,16,25.90
2012,09,14,18,17,25.90
2012,09,14,18,18,25.80
2012,09,14,18,19,25.80
2012,09,14,18,20,25.70
2012,09,14,18,21,25.60
2012,09,14,18,22,25.60
2012,09,14,18,23,25.50
2012,09,14,18,24,25.40
2012,09,14,18,25,25.40
2012,09,14,18,26,25.30
2012,09,14,18,27,25.30
2012,09,14,18,28,25.20
2012,09,14,18,29,25.20
2012,09,14,18,30,25.20
2012,09,14,18,31,25.10
2012,09,14,18,32,25.10
2012,09,14,18,33,25.00
2012,09,14,18,34,24.90
2012,09,14,18,35,24.80
2012,09,14,18,36,24.70
2012,09,14,18,37,24.70
2012,09,14,18,38,24.60
2012,09,14,18,39,24.50
2012,09,14,18,40,24.40
2012,09,14,18,41,24.40
2012,09,14,18,42,24.30
2012,09,14,18,43,24.30
2012,09,14,18,44,24.20
2012,09,14,18,45,24.20
2012,09,14,18,46,24.20
2012,09,14,18,47,24.10
2012,09,14,18,48,23.90
2012,09,14,18,49,23.90
2012,09,14,18,50,23.80
2012,09,14,18,51,23.70
2012,09,14,18,52,23.70
2012,09,14,18,53,23.60
2012,09,14,18,54,23.50
2012,09,14,18,55,23.40
2012,09,14,18,56,23.30
2012,09,14,18,58,23.20
2012,09,14,18,59,23.20
2012,09,14,19,00,23.10
2012,09,14,19,01,23.00
2012,09,14,19,02,22.90
2012,09,14,19,03,22.80
2012,09,14,19,04,22.70
2012,09,14,19,05,22.70
2012,09,14,19,06,22.70
2012,09,14,19,07,22.60
2012,09,14,19,08,22.60
2012,09,14,19,09,22.60
2012,09,14,19,10,22.60
2012,09,14,19,11,22.60
2012,09,14,19,12,22.50
2012,09,14,19,13,22.50
2012,09,14,19,15,22.40
2012,09,14,19,16,22.40
2012,09,14,19,17,22.30
2012,09,14,19,18,22.30
2012,09,14,19,19,22.30
2012,09,14,19,20,22.20
2012,09,14,19,21,22.20
2012,09,14,19,22,22.10
2012,09,14,19,23,22.00
2012,09,14,19,24,21.90
2012,09,14,19,25,21.90
2012,09,14,19,26,21.80
2012,09,14,19,27,21.80
2012,09,14,19,28,21.80
2012,09,14,19,29,21.80
2012,09,14,19,30,21.70
2012,09,14,19,31,21.70
2012,09,14,19,32,21.70
2012,09,14,19,33,21.60
2012,09,14,19,34,21.60
2012,09,14,19,35,21.50
2012,09,14,19,36,21.40
2012,09,14,19,37,21.40
2012,09,14,19,38,21.30
2012,09,14,19,39,21.30
2012,09,14,19,40,21.20
2012,09,14,19,41,21.20
2012,09,14,19,42,21.20
2012,09,14,19,43,21.10
2012,09,14,19,44,21.10
2012,09,14,19,45,21.10
2012,09,14,19,46,21.10
2012,09,14,19,47,21.10
2012,09,14,19,48,21.10
2012,09,14,19,49,21.10
2012,09,14,19,50,21.10
2012,09,14,19,51,21.10
2012,09,14,19,52,21.10
2012,09,14,19,53,21.00
2012,09,14,19,54,21.00
2012,09,14,19,55,21.00